GW3320 Weather Reports


time (UTC)temp
F
wind
direction
speed
knots
gust
knots
rain 1hr
in
rain 24hr
in
rain mn
in
humidity
%
barometer
mb
20260505070526 53 55 1.7 7.8 0.00 0.00 0.00 53 1008.3
20260505070051 53 50 1.7 11.3 0.00 0.00 0.00 52 1008.2
20260505065527 53 51 2.6 11.3 0.00 0.00 0.00 52 1008.2
20260505065026 53 51 4.3 11.3 0.00 0.00 0.00 51 1008.3
20260505064556 53 360 2.6 9.6 0.00 0.00 0.00 51 1008.2
20260505064025 54 53 2.6 9.6 0.00 0.00 0.00 51 1008.2
20260505063527 54 305 2.6 9.6 0.00 0.00 0.00 50 1008.2
20260505063049 54 28 2.6 10.4 0.00 0.00 0.00 50 1008.2
20260505062526 54 75 2.6 13.9 0.00 0.00 0.00 49 1008.2
20260505062026 55 15 4.3 13.9 0.00 0.00 0.00 48 1008.3
20260505061545 55 35 2.6 9.6 0.00 0.00 0.00 49 1008.2
20260505061026 55 80 1.7 7.8 0.00 0.00 0.00 48 1008.3
20260505060526 55 33 2.6 8.7 0.00 0.00 0.00 48 1008.3
20260505060048 55 323 0.9 8.7 0.00 0.00 0.00 48 1008.3
20260505055527 55 57 1.7 8.7 0.00 0.00 0.00 48 1008.2
20260505055027 55 0 1.7 8.7 0.00 0.00 0.00 48 1007.9
20260505054557 56 27 0.9 13.0 0.00 0.00 0.00 48 1007.7
20260505054026 56 18 0.9 13.0 0.00 0.00 0.00 47 1007.6
20260505053524 56 171 1.7 12.2 0.00 0.00 0.00 46 1007.6
20260505053053 56 66 2.6 8.7 0.00 0.00 0.00 46 1007.4
20260505052524 57 320 2.6 10.4 0.00 0.00 0.00 45 1007.4
20260505052026 57 30 2.6 13.0 0.00 0.00 0.00 44 1007.2
20260505051542 57 37 4.3 13.0 0.00 0.00 0.00 44 1007.1
20260505051026 57 319 4.3 12.2 0.00 0.00 0.00 43 1006.8
20260505050529 58 65 4.3 12.2 0.00 0.00 0.00 43 1006.8
20260505041605 62 56 1.7 9.6 0.00 0.00 0.00 41 1005.9
20260505041026 62 270 2.6 9.6 0.00 0.00 0.00 41 1005.7
20260505040527 63 325 2.6 9.6 0.00 0.00 0.00 42 1005.7
20260505040045 64 34 0.9 11.3 0.00 0.00 0.00 43 1006.1
20260505035527 64 330 3.5 12.2 0.00 0.00 0.00 40 1006.0
20260505035024 65 19 3.5 12.2 0.00 0.00 0.00 38 1005.3
20260505034544 65 58 3.5 12.2 0.00 0.00 0.00 37 1005.3
20260505034026 66 46 1.7 12.2 0.00 0.00 0.00 37 1005.7
20260505033529 66 355 2.6 7.8 0.00 0.00 0.00 37 1006.1
20260505033045 66 65 1.7 13.9 0.00 0.00 0.00 37 1006.3
20260505032525 66 46 1.7 13.9 0.00 0.00 0.00 37 1006.2
20260505032030 66 336 2.6 10.4 0.00 0.00 0.00 37 1006.0
20260505031551 66 336 2.6 10.4 0.00 0.00 0.00 37 1005.8
20260505031026 66 56 1.7 8.7 0.00 0.00 0.00 37 1005.7
20260505030527 66 333 1.7 8.7 0.00 0.00 0.00 36 1005.6
20260505030045 67 63 2.6 8.7 0.00 0.00 0.00 36 1005.1
20260505025525 67 0 1.7 7.8 0.00 0.00 0.00 37 1004.7
20260505025025 67 264 1.7 9.6 0.00 0.00 0.00 37 1004.3
20260505024546 67 296 0.9 9.6 0.00 0.00 0.00 36 1004.3
20260505024023 68 304 2.6 9.6 0.00 0.00 0.00 35 1004.3
20260505023525 68 67 1.7 9.6 0.00 0.00 0.00 35 1004.1
20260505023046 68 355 2.6 9.6 0.00 0.00 0.00 34 1003.9
20260505022530 69 65 1.7 9.6 0.00 0.00 0.00 35 1003.8
20260505022024 69 59 1.7 9.6 0.00 0.00 0.00 35 1003.6
20260505021544 70 47 1.7 9.6 0.00 0.00 0.00 35 1003.4
20260505021026 70 111 2.6 8.7 0.00 0.00 0.00 34 1003.3
20260505020525 70 336 0.9 8.7 0.00 0.00 0.00 34 1003.1
20260505020039 71 43 0.9 7.8 0.00 0.00 0.00 34 1003.0
20260505015526 71 36 1.7 13.0 0.00 0.00 0.00 33 1002.9
20260505015028 72 58 2.6 13.0 0.00 0.00 0.00 33 1002.9
20260505014546 72 96 0.9 5.2 0.00 0.00 0.00 35 1002.8
20260505014026 72 29 0.9 12.2 0.00 0.00 0.00 34 1002.6
20260505013523 73 5 0.9 12.2 0.00 0.00 0.00 35 1002.5
20260505013041 73 53 0.9 12.2 0.00 0.00 0.00 36 1002.4
20260505012521 73 117 1.7 11.3 0.00 0.00 0.00 36 1002.3
20260505012025 74 249 1.7 11.3 0.00 0.00 0.00 35 1002.2
20260505011542 74 216 1.7 9.6 0.00 0.00 0.00 36 1002.1
20260505011023 74 40 1.7 13.0 0.00 0.00 0.00 38 1002.1
20260505010522 74 49 5.2 13.0 0.00 0.00 0.00 39 1001.8
20260505010044 74 346 2.6 7.8 0.00 0.00 0.00 45 1001.6
20260505005524 75 126 0.9 2.6 0.00 0.00 0.00 49 1001.6
20260505005024 75 0 0.0 1.7 0.00 0.00 0.00 47 1001.3
20260505004545 75 127 0.9 3.5 0.00 0.00 0.00 47 1001.2
20260505004021 76 127 0.9 3.5 0.00 0.00 0.00 47 1001.2
20260505003527 76 160 0.9 3.5 0.00 0.00 0.00 46 1001.1
20260505003044 76 160 0.9 4.3 0.00 0.00 0.00 46 1001.1
20260505002524 76 159 0.9 4.3 0.00 0.00 0.00 46 1001.0
20260505002024 76 155 0.9 2.6 0.00 0.00 0.00 46 1001.1
20260505001550 77 155 0.9 2.6 0.00 0.00 0.00 45 1001.1
20260505001022 77 155 0.9 4.3 0.00 0.00 0.00 44 1001.2
20260505000521 78 155 0.9 4.3 0.00 0.00 0.00 43 1001.2
20260505000053 78 155 1.7 4.3 0.00 0.00 0.00 41 1001.2
20260504235523 78 155 1.7 5.2 0.00 0.00 0.00 41 1001.2
20260504235023 78 155 1.7 5.2 0.00 0.00 0.00 40 1001.2
20260504234546 79 154 2.6 5.2 0.00 0.00 0.00 38 1001.2
20260504234022 79 165 2.6 5.2 0.00 0.00 0.00 39 1001.2
20260504233525 79 163 2.6 7.0 0.00 0.00 0.00 38 1001.1
20260504233040 79 166 3.5 7.0 0.00 0.00 0.00 38 1001.2
20260504232522 80 176 3.5 6.1 0.00 0.00 0.00 37 1001.1
20260504232024 80 178 1.7 4.3 0.00 0.00 0.00 37 1001.2
20260504231556 81 178 1.7 7.8 0.00 0.00 0.00 36 1001.2
20260504231024 81 179 3.5 7.8 0.00 0.00 0.00 34 1001.1
20260504230525 82 207 0.9 2.6 0.00 0.00 0.00 31 1001.2
20260504230046 82 207 0.0 3.5 0.00 0.00 0.00 26 1001.1
20260504225521 82 207 0.9 3.5 0.00 0.00 0.00 26 1001.1
20260504225023 82 248 0.9 4.3 0.00 0.00 0.00 26 1001.2
20260504224541 82 247 1.7 5.2 0.00 0.00 0.00 27 1001.1
20260504224025 82 251 0.9 5.2 0.00 0.00 0.00 26 1001.1
20260504223525 83 232 1.7 5.2 0.00 0.00 0.00 27 1000.9
20260504223043 83 223 2.6 5.2 0.00 0.00 0.00 24 1001.0
20260504222525 83 203 3.5 6.1 0.00 0.00 0.00 24 1000.9
20260504222021 84 207 2.6 6.1 0.00 0.00 0.00 27 1000.8
20260504221556 84 229 0.0 4.3 0.00 0.00 0.00 25 1000.9
20260504221026 84 0 0.9 4.3 0.00 0.00 0.00 22 1000.9
20260504220525 85 0 0.0 5.2 0.00 0.00 0.00 25 1000.9
20260504220046 85 236 1.7 5.2 0.00 0.00 0.00 26 1000.9
20260504215525 85 269 0.9 7.0 0.00 0.00 0.00 23 1000.9
20260504215028 85 267 0.9 7.0 0.00 0.00 0.00 22 1001.0
20260504214545 85 202 2.6 7.0 0.00 0.00 0.00 24 1001.0
20260504214028 84 222 3.5 7.0 0.00 0.00 0.00 25 1001.0
20260504213525 84 214 0.9 6.1 0.00 0.00 0.00 24 1001.0
20260504213044 84 215 1.7 5.2 0.00 0.00 0.00 23 1001.0
20260504212529 85 206 1.7 5.2 0.00 0.00 0.00 26 1001.1
20260504212025 85 159 1.7 4.3 0.00 0.00 0.00 24 1001.1
20260504211548 85 156 0.9 6.1 0.00 0.00 0.00 26 1001.2
20260504211027 85 0 2.6 6.1 0.00 0.00 0.00 28 1001.2
20260504210527 85 218 1.7 5.2 0.00 0.00 0.00 24 1001.2
20260504210104 85 315 0.9 3.5 0.00 0.00 0.00 24 1001.3
20260504205525 85 321 1.7 4.3 0.00 0.00 0.00 23 1001.4
20260504205025 85 334 0.9 4.3 0.00 0.00 0.00 25 1001.4
20260504204548 85 349 1.7 4.3 0.00 0.00 0.00 23 1001.5
20260504204025 85 19 1.7 7.0 0.00 0.00 0.00 24 1001.6
20260504203526 85 343 1.7 7.8 0.00 0.00 0.00 24 1001.7
20260504203049 85 330 4.3 7.8 0.00 0.00 0.00 24 1001.7
20260504202526 85 304 1.7 4.3 0.00 0.00 0.00 25 1001.7
20260504202024 84 290 0.0 5.2 0.00 0.00 0.00 25 1001.8
20260504201549 84 295 1.7 6.1 0.00 0.00 0.00 25 1001.8
20260504201024 84 259 2.6 6.1 0.00 0.00 0.00 26 1001.8
20260504200525 83 301 0.0 5.2 0.00 0.00 0.00 27 1001.9
20260504200042 83 307 2.6 7.0 0.00 0.00 0.00 27 1001.9
20260504195526 83 321 1.7 7.0 0.00 0.00 0.00 27 1002.1
20260504195027 83 273 2.6 6.1 0.00 0.00 0.00 26 1002.0
20260504194602 83 0 0.0 5.2 0.00 0.00 0.00 25 1002.1
20260504194027 82 0 1.7 6.1 0.00 0.00 0.00 30 1002.2
20260504193525 82 315 2.6 7.0 0.00 0.00 0.00 25 1002.1
20260504193044 83 296 2.6 7.0 0.00 0.00 0.00 28 1002.1
20260504192525 83 347 4.3 7.8 0.00 0.00 0.00 26 1002.1
20260504192029 83 0 2.6 7.8 0.00 0.00 0.00 25 1002.1
20260504191547 84 308 3.5 7.8 0.00 0.00 0.00 27 1002.1
20260504191027 84 0 0.0 3.5 0.00 0.00 0.00 26 1002.1
20260504190525 83 0 1.7 6.1 0.00 0.00 0.00 29 1002.2
20260504190057 83 61 0.0 6.1 0.00 0.00 0.00 27 1002.2
20260504185530 83 58 1.7 8.7 0.00 0.00 0.00 29 1002.2
20260504185031 83 323 0.9 8.7 0.00 0.00 0.00 27 1002.2
20260504184555 83 317 4.3 8.7 0.00 0.00 0.00 26 1002.2
20260504184026 84 11 0.9 5.2 0.00 0.00 0.00 28 1002.2
20260504183530 83 50 1.7 11.3 0.00 0.00 0.00 26 1002.2
20260504183041 83 331 1.7 11.3 0.00 0.00 0.00 27 1002.3
20260504182527 83 312 6.1 11.3 0.00 0.00 0.00 27 1002.3
20260504182026 83 294 1.7 9.6 0.00 0.00 0.00 27 1002.3
20260504181548 84 281 6.1 9.6 0.00 0.00 0.00 23 1002.3
20260504181025 84 346 0.9 9.6 0.00 0.00 0.00 31 1002.2
20260504180525 83 0 1.7 9.6 0.00 0.00 0.00 28 1002.3
20260504180115 83 355 5.2 11.3 0.00 0.00 0.00 28 1002.3
20260504175524 82 345 6.1 11.3 0.00 0.00 0.00 30 1002.4
20260504175025 82 291 0.9 10.4 0.00 0.00 0.00 29 1002.3
20260504174549 82 306 5.2 11.3 0.00 0.00 0.00 26 1002.4
20260504174025 82 336 3.5 12.2 0.00 0.00 0.00 28 1002.4
20260504173526 82 342 5.2 12.2 0.00 0.00 0.00 30 1002.5
20260504173053 82 337 2.6 9.6 0.00 0.00 0.00 30 1002.5
20260504172525 82 324 1.7 9.6 0.00 0.00 0.00 29 1002.6
20260504172027 82 320 1.7 9.6 0.00 0.00 0.00 31 1002.6
20260504171542 81 328 3.5 9.6 0.00 0.00 0.00 29 1002.6
20260504171025 81 313 4.3 11.3 0.00 0.00 0.00 31 1002.7
20260504170525 81 312 6.1 13.0 0.00 0.00 0.00 30 1002.8
20260504151028 70 292 1.7 6.1 0.00 0.00 0.00 50 1003.2
20260504150524 69 290 1.7 6.1 0.00 0.00 0.00 50 1003.1
20260504141031 65 240 1.7 7.0 0.00 0.00 0.00 55 1003.2
20260504140527 65 231 2.6 7.8 0.00 0.00 0.00 53 1003.1
20260504130524 61 210 4.3 8.7 0.00 0.00 0.00 62 1002.7
20260504110528 51 186 4.3 7.8 0.00 0.00 0.00 82 1001.6
20260504100525 46 0 0.0 0.0 0.00 0.00 0.00 86 1002.7
20260504081542 49 0 0.0 1.7 0.00 0.00 0.00 80 1003.8
20260504081028 50 71 0.0 1.7 0.00 0.00 0.00 80 1003.6
20260504080526 50 0 0.0 1.7 0.00 0.00 0.00 80 1003.6